TDRS 13

Last updated on Sun Apr 12 2026 00:02:44 GMT+0000 (Coordinated Universal Time)

1 42915U 17047A 26101.37580976 -.00000096 00000+0 00000+0 0 9999 2 42915 3.4371 1.0209 0012500 98.0721 224.3262 1.00272287 31675
UTC large
Height (km)
Speed (km/s)
/
Latitude / Longitude
Inclination (degrees)
Orbital Period (minutes)
Azimuth
Elevation
Range (km)
Doppler Factor

Next 0 passes for location: London (51.5072 / 0.1276)

Sorry there are no passes over London.
TDRS 13